Tracking 19903 objects as of 16-Oct-2019
HD Live streaming from Space Station
objects crossing your sky now

FENGYUN 1C DEB

Track FENGYUN 1C DEB now!
10-day predictions


NORAD ID: 35147
Int'l Code: 1999-025DMB
Perigee: 737.5 km
Apogee: 807.0 km
Inclination: 99.5 °
Period: 100.1 minutes
Semi major axis: 7143 km
RCS: 0.0009 m2 (small)
Launch date: May 10, 1999
Source: People's Republic of China (PRC)
Launch site: Taiyaun Space Center, China (TSC)

Note: This is SATELLITE DEBRIS
aabbcc
Your satellite tracking list
Your tracking list is empty




NASA's NSSDC Master Catalog

Two Line Element Set (TLE):
1 35147U 99025DMB 19287.28866520 +.00000871 +00000-0 +30133-3 0  9998
2 35147 099.5051 053.5267 0048688 323.2913 036.4939 14.38006912417455
Source of the keplerian elements: AFSPC